| time (UTC) | temp F | wind direction | speed MPH | gust MPH | rain 1hr in | rain 24hr in | rain mn in | humidity % | barometer mb |
| 20260905220045 | 78 | 264 | 4.0 | 8.0 | 0.00 | 0.00 | 0.00 | 74 | 1013.3 |
| 20260905215032 | 78 | 338 | 4.0 | 8.0 | 0.00 | 0.00 | 0.00 | 74 | 1013.3 |
| 20260905214036 | 78 | 244 | 4.0 | 8.0 | 0.00 | 0.00 | 0.00 | 75 | 1013.4 |
| 20260905213047 | 78 | 281 | 5.0 | 8.0 | 0.00 | 0.00 | 0.00 | 75 | 1013.5 |
| 20260905212017 | 78 | 236 | 6.0 | 9.0 | 0.00 | 0.00 | 0.00 | 75 | 1013.6 |
| 20260905205819 | 78 | 271 | 5.0 | 8.0 | 0.00 | 0.00 | 0.00 | 75 | 1013.6 |
| 20260905204750 | 78 | 221 | 5.0 | 8.0 | 0.00 | 0.00 | 0.00 | 74 | 1013.6 |
| 20260905203719 | 78 | 247 | 6.0 | 8.0 | 0.00 | 0.00 | 0.00 | 74 | 1013.8 |
| 20260905202659 | 79 | 173 | 5.0 | 8.0 | 0.00 | 0.00 | 0.00 | 73 | 1014.0 |
| 20260905201705 | 78 | 209 | 4.0 | 8.0 | 0.00 | 0.00 | 0.00 | 74 | 1014.0 |
| 20260905200648 | 79 | 244 | 4.0 | 8.0 | 0.00 | 0.00 | 0.00 | 75 | 1014.0 |
| 20260905195627 | 78 | 221 | 5.0 | 8.0 | 0.00 | 0.00 | 0.00 | 74 | 1014.1 |
| 20260905194641 | 78 | 39 | 5.0 | 8.0 | 0.00 | 0.00 | 0.00 | 75 | 1014.5 |
| 20260905193624 | 78 | 212 | 4.0 | 8.0 | 0.00 | 0.00 | 0.00 | 75 | 1014.5 |
| 20260905192644 | 77 | 248 | 4.0 | 8.0 | 0.00 | 0.00 | 0.00 | 76 | 1014.3 |
| 20260905191655 | 77 | 224 | 4.0 | 7.0 | 0.00 | 0.00 | 0.00 | 77 | 1014.6 |
| 20260905190712 | 75 | 61 | 4.0 | 8.0 | 0.00 | 0.00 | 0.00 | 78 | 1014.6 |
| 20260905185719 | 76 | 217 | 5.0 | 8.0 | 0.00 | 0.00 | 0.00 | 78 | 1014.9 |
| 20260905184741 | 76 | 280 | 4.0 | 8.0 | 0.00 | 0.00 | 0.00 | 76 | 1014.9 |
| 20260905182539 | 75 | 261 | 4.0 | 7.0 | 0.00 | 0.00 | 0.00 | 78 | 1015.1 |
| 20260905181553 | 75 | 258 | 4.0 | 7.0 | 0.00 | 0.00 | 0.00 | 76 | 1015.2 |
| 20260905180559 | 76 | 240 | 3.0 | 6.0 | 0.00 | 0.00 | 0.00 | 75 | 1015.1 |
| 20260905175539 | 76 | 240 | 3.0 | 6.0 | 0.00 | 0.00 | 0.00 | 75 | 1015.1 |
| 20260905174515 | 76 | 197 | 4.0 | 6.0 | 0.00 | 0.00 | 0.00 | 75 | 1015.0 |
| 20260905173517 | 76 | 229 | 3.0 | 6.0 | 0.00 | 0.00 | 0.00 | 76 | 1014.8 |
| 20260905172512 | 76 | 243 | 3.0 | 5.0 | 0.00 | 0.00 | 0.00 | 75 | 1014.8 |
| 20260905171503 | 76 | 245 | 3.0 | 5.0 | 0.00 | 0.00 | 0.00 | 75 | 1014.8 |
| 20260905170459 | 76 | 86 | 2.0 | 4.0 | 0.00 | 0.00 | 0.00 | 76 | 1014.8 |
| 20260905165448 | 76 | 194 | 2.0 | 5.0 | 0.00 | 0.00 | 0.00 | 77 | 1014.8 |
| 20260905164419 | 76 | 126 | 2.0 | 5.0 | 0.00 | 0.00 | 0.00 | 77 | 1014.8 |
| 20260905163437 | 75 | 252 | 1.0 | 3.0 | 0.00 | 0.00 | 0.00 | 77 | 1014.7 |
| 20260905162408 | 75 | 239 | 1.0 | 3.0 | 0.00 | 0.00 | 0.00 | 78 | 1014.5 |
| 20260905161413 | 74 | 271 | 1.0 | 3.0 | 0.00 | 0.00 | 0.00 | 79 | 1014.5 |
| 20260905160357 | 74 | 247 | 1.0 | 3.0 | 0.00 | 0.00 | 0.00 | 81 | 1014.4 |
| 20260905155410 | 73 | 276 | 1.0 | 2.0 | 0.00 | 0.00 | 0.00 | 79 | 1014.5 |
| 20260905154345 | 74 | 288 | 0.0 | 1.0 | 0.00 | 0.00 | 0.00 | 77 | 1014.4 |
| 20260905153358 | 75 | 93 | 0.0 | 0.0 | 0.00 | 0.00 | 0.00 | 81 | 1014.3 |
| 20260905152337 | 73 | 94 | 0.0 | 1.0 | 0.00 | 0.00 | 0.00 | 82 | 1014.3 |
| 20260905151320 | 72 | 84 | 0.0 | 0.0 | 0.00 | 0.00 | 0.00 | 85 | 1014.2 |
| 20260905150337 | 71 | 89 | 0.0 | 0.0 | 0.00 | 0.00 | 0.00 | 87 | 1014.1 |
| 20260905145331 | 69 | 77 | 0.0 | 1.0 | 0.00 | 0.00 | 0.00 | 87 | 1014.1 |
| 20260905144316 | 68 | 86 | 1.0 | 2.0 | 0.00 | 0.00 | 0.00 | 88 | 1014.1 |
| 20260905143256 | 67 | 79 | 0.0 | 2.0 | 0.00 | 0.00 | 0.00 | 89 | 1014.0 |
| 20260905142313 | 66 | 60 | 1.0 | 3.0 | 0.00 | 0.00 | 0.00 | 90 | 1013.8 |
| 20260905141246 | 65 | 58 | 1.0 | 3.0 | 0.00 | 0.00 | 0.00 | 90 | 1013.8 |
| 20260905135056 | 65 | 84 | 1.0 | 3.0 | 0.00 | 0.00 | 0.00 | 90 | 1013.6 |
| 20260905134054 | 65 | 85 | 1.0 | 3.0 | 0.00 | 0.00 | 0.00 | 90 | 1013.5 |
| 20260905133112 | 65 | 88 | 1.0 | 4.0 | 0.00 | 0.00 | 0.00 | 90 | 1013.3 |
| 20260905132133 | 65 | 71 | 2.0 | 4.0 | 0.00 | 0.00 | 0.00 | 90 | 1013.3 |
| 20260905131108 | 65 | 77 | 1.0 | 4.0 | 0.00 | 0.00 | 0.00 | 90 | 1013.3 |
| 20260905130123 | 65 | 75 | 1.0 | 3.0 | 0.00 | 0.00 | 0.00 | 90 | 1013.1 |
| 20260905125118 | 65 | 71 | 1.0 | 3.0 | 0.00 | 0.00 | 0.00 | 90 | 1013.2 |
| 20260905122954 | 66 | 95 | 0.0 | 2.0 | 0.00 | 0.00 | 0.00 | 90 | 1013.1 |
| 20260905121958 | 66 | 63 | 0.0 | 2.0 | 0.00 | 0.00 | 0.00 | 90 | 1013.1 |
| 20260905121002 | 66 | 23 | 0.0 | 2.0 | 0.00 | 0.00 | 0.00 | 90 | 1013.3 |
| 20260905114814 | 66 | 91 | 0.0 | 0.0 | 0.00 | 0.00 | 0.00 | 90 | 1013.2 |
| 20260905113823 | 66 | 91 | 0.0 | 0.0 | 0.00 | 0.00 | 0.00 | 90 | 1013.2 |
| 20260905112829 | 66 | 91 | 0.0 | 0.0 | 0.00 | 0.00 | 0.00 | 90 | 1013.2 |
| 20260905111828 | 66 | 91 | 0.0 | 0.0 | 0.00 | 0.00 | 0.00 | 90 | 1013.3 |
| 20260905110810 | 66 | 91 | 0.0 | 0.0 | 0.00 | 0.00 | 0.00 | 90 | 1013.4 |
| 20260905105832 | 66 | 91 | 0.0 | 0.0 | 0.00 | 0.00 | 0.00 | 90 | 1013.4 |
| 20260905104836 | 66 | 91 | 0.0 | 0.0 | 0.00 | 0.00 | 0.00 | 90 | 1013.3 |
| 20260905103809 | 66 | 91 | 0.0 | 0.0 | 0.00 | 0.00 | 0.00 | 90 | 1013.3 |
| 20260905102755 | 66 | 91 | 0.0 | 0.0 | 0.00 | 0.00 | 0.00 | 90 | 1013.4 |
| 20260905100717 | 67 | 96 | 0.0 | 2.0 | 0.00 | 0.00 | 0.00 | 89 | 1013.5 |
| 20260905095644 | 67 | 84 | 0.0 | 2.0 | 0.00 | 0.00 | 0.00 | 89 | 1013.4 |
| 20260905093504 | 68 | 113 | 1.0 | 3.0 | 0.00 | 0.00 | 0.00 | 89 | 1013.3 |
| 20260905092436 | 68 | 93 | 1.0 | 3.0 | 0.00 | 0.00 | 0.00 | 89 | 1013.4 |
| 20260905091444 | 68 | 98 | 1.0 | 3.0 | 0.00 | 0.00 | 0.00 | 89 | 1013.5 |
| 20260905085404 | 69 | 107 | 0.0 | 2.0 | 0.00 | 0.00 | 0.00 | 89 | 1013.4 |
| 20260905084405 | 69 | 120 | 1.0 | 3.0 | 0.00 | 0.00 | 0.00 | 89 | 1013.6 |
| 20260905083415 | 69 | 116 | 1.0 | 5.0 | 0.00 | 0.00 | 0.00 | 89 | 1013.5 |
| 20260905082440 | 69 | 127 | 1.0 | 5.0 | 0.00 | 0.00 | 0.00 | 89 | 1013.6 |
| 20260905075241 | 68 | 149 | 1.0 | 2.0 | 0.00 | 0.00 | 0.00 | 88 | 1013.7 |
| 20260905073102 | 69 | 110 | 0.0 | 2.0 | 0.00 | 0.00 | 0.00 | 89 | 1013.5 |
| 20260905072120 | 69 | 133 | 0.0 | 1.0 | 0.00 | 0.00 | 0.00 | 89 | 1013.5 |
| 20260905065940 | 69 | 141 | 0.0 | 3.0 | 0.00 | 0.00 | 0.00 | 89 | 1013.4 |
| 20260905063753 | 69 | 133 | 0.0 | 1.0 | 0.00 | 0.00 | 0.00 | 89 | 1013.4 |
| 20260905062743 | 69 | 153 | 0.0 | 3.0 | 0.00 | 0.00 | 0.00 | 89 | 1013.4 |
| 20260905061747 | 69 | 233 | 0.0 | 3.0 | 0.00 | 0.00 | 0.00 | 89 | 1013.4 |
| 20260905060723 | 69 | 276 | 1.0 | 6.0 | 0.00 | 0.00 | 0.00 | 89 | 1013.4 |
| 20260905055714 | 69 | 266 | 1.0 | 6.0 | 0.00 | 0.00 | 0.00 | 89 | 1013.3 |
| 20260905054736 | 69 | 269 | 1.0 | 3.0 | 0.00 | 0.00 | 0.00 | 89 | 1013.3 |
| 20260905053755 | 69 | 204 | 1.0 | 4.0 | 0.00 | 0.00 | 0.00 | 89 | 1013.4 |
| 20260905052738 | 69 | 278 | 2.0 | 5.0 | 0.00 | 0.00 | 0.00 | 89 | 1013.4 |
| 20260905051734 | 69 | 136 | 4.0 | 8.0 | 0.00 | 0.00 | 0.00 | 89 | 1013.5 |
| 20260905050705 | 69 | 260 | 4.0 | 8.0 | 0.00 | 0.00 | 0.00 | 89 | 1013.4 |
| 20260905045651 | 69 | 214 | 4.0 | 7.0 | 0.00 | 0.00 | 0.00 | 89 | 1013.4 |
| 20260905044636 | 69 | 221 | 4.0 | 7.0 | 0.00 | 0.00 | 0.00 | 90 | 1013.4 |
| 20260905043629 | 70 | 231 | 5.0 | 7.0 | 0.00 | 0.00 | 0.00 | 90 | 1013.3 |
| 20260905042619 | 69 | 262 | 5.0 | 8.0 | 0.00 | 0.00 | 0.00 | 89 | 1013.2 |
| 20260905041603 | 69 | 268 | 6.0 | 9.0 | 0.00 | 0.00 | 0.00 | 89 | 1013.1 |
| 20260905034247 | 70 | 9 | 7.0 | 12.0 | 0.00 | 0.00 | 0.00 | 87 | 1012.9 |
| 20260905033309 | 70 | 3 | 6.0 | 11.0 | 0.00 | 0.00 | 0.00 | 87 | 1012.8 |
| 20260905032310 | 70 | 291 | 6.0 | 10.0 | 0.00 | 0.00 | 0.00 | 87 | 1012.8 |
| 20260905031244 | 70 | 242 | 6.0 | 10.0 | 0.00 | 0.00 | 0.00 | 86 | 1012.6 |
| 20260905030229 | 71 | 268 | 5.0 | 9.0 | 0.00 | 0.00 | 0.00 | 86 | 1012.5 |
| 20260905025233 | 70 | 313 | 6.0 | 10.0 | 0.00 | 0.00 | 0.00 | 85 | 1012.4 |
| 20260905024233 | 70 | 309 | 6.0 | 10.0 | 0.00 | 0.00 | 0.00 | 85 | 1012.4 |
| 20260905023228 | 70 | 316 | 6.0 | 9.0 | 0.00 | 0.00 | 0.00 | 85 | 1012.4 |
| 20260905022221 | 71 | 227 | 6.0 | 9.0 | 0.00 | 0.00 | 0.00 | 84 | 1012.5 |
| 20260905020055 | 72 | 342 | 6.0 | 11.0 | 0.00 | 0.00 | 0.00 | 82 | 1012.5 |
| 20260905015056 | 72 | 273 | 7.0 | 10.0 | 0.00 | 0.00 | 0.00 | 81 | 1012.6 |
| 20260905014052 | 72 | 294 | 7.0 | 11.0 | 0.00 | 0.00 | 0.00 | 80 | 1012.7 |
| 20260905013115 | 73 | 245 | 7.0 | 11.0 | 0.00 | 0.00 | 0.00 | 80 | 1012.7 |
| 20260905012113 | 73 | 304 | 6.0 | 10.0 | 0.00 | 0.00 | 0.00 | 80 | 1012.8 |
| 20260905011136 | 74 | 265 | 6.0 | 10.0 | 0.00 | 0.00 | 0.00 | 79 | 1012.7 |
| 20260905010153 | 74 | 235 | 6.0 | 9.0 | 0.00 | 0.00 | 0.00 | 79 | 1012.8 |
| 20260905005132 | 74 | 261 | 6.0 | 9.0 | 0.00 | 0.00 | 0.00 | 77 | 1012.9 |
| 20260905004125 | 75 | 342 | 6.0 | 9.0 | 0.00 | 0.00 | 0.00 | 76 | 1012.9 |
| 20260905002003 | 75 | 89 | 6.0 | 11.0 | 0.00 | 0.00 | 0.00 | 76 | 1012.9 |
| 20260905001005 | 75 | 272 | 6.0 | 11.0 | 0.00 | 0.00 | 0.00 | 76 | 1012.8 |
| 20260904232547 | 76 | 255 | 6.0 | 11.0 | 0.00 | 0.00 | 0.00 | 75 | 1012.8 |
| 20260904230432 | 75 | 250 | 6.0 | 11.0 | 0.00 | 0.00 | 0.00 | 74 | 1012.9 |
| 20260904225438 | 76 | 261 | 6.0 | 11.0 | 0.00 | 0.00 | 0.00 | 73 | 1013.0 |
| 20260904224411 | 76 | 278 | 7.0 | 11.0 | 0.00 | 0.00 | 0.00 | 73 | 1012.9 |
| 20260904223337 | 77 | 236 | 7.0 | 10.0 | 0.00 | 0.00 | 0.00 | 72 | 1012.9 |
| 20260904222341 | 77 | 117 | 7.0 | 11.0 | 0.00 | 0.00 | 0.00 | 70 | 1013.1 |
| 20260904221314 | 77 | 239 | 7.0 | 11.0 | 0.00 | 0.00 | 0.00 | 69 | 1013.2 |
| 20260904220340 | 77 | 266 | 8.0 | 11.0 | 0.00 | 0.00 | 0.00 | 69 | 1013.4 |